Regional Weather Roundup
Issued by NWS

Home | Current Version | Previous Version | Graphics & Text | Print | Product List | Glossary On
Versions: 1 2 3 4 5 6 7 8 9 10 11 12 13 14 15 16 17 18 19 20 21 22 23 24 25 26 27 28 29 30 31 32 33 34 35 36 37 38 39 40 41 42 43 44 45 46 47 48 49 50
000
ASUS43 KOAX 280502
RWRNE

WEATHER ROUNDUP FOR NEBRASKA
NATIONAL WEATHER SERVICE OMAHA NE
1100 PM CST FRI FEB 27 2015

NOTES: SATELLITE DATA IS BEING USED TO AUGMENT CLOUD COVER ABOVE
       12000 FEET.
       "FAIR" INDICATES FEW OR NO CLOUDS BELOW 12,000 FEET WITH NO
       SIGNIFICANT WEATHER AND/OR OBSTRUCTIONS TO VISIBILITY.

  * THESE STATIONS DO NOT REPORT WEATHER SUCH AS RAIN...SNOW OR FOG.

NEZ001>004-019>022-054>056-280600-
NEBRASKA PANHANDLE

CITY           SKY/WX    TMP DP  RH WIND       PRES   REMARKS
SCOTTSBLUFF    CLOUDY    15   7  70 SE14      30.01S WCI   0
ALLIANCE       MOCLDY    15   6  67 S21       30.03S WCI  -2
CHADRON        CLEAR     18   7  62 S12       30.04S WCI   5
KIMBALL        FLURRIES   6   3  85 S13       29.95S WCI -10
SIDNEY         PTCLDY     8   3  80 S12       30.03F WCI  -7
$$

NEZ057>060-069>072-079>082-280600-
SOUTHWEST NEBRASKA

CITY           SKY/WX    TMP DP  RH WIND       PRES   REMARKS
NORTH PLATTE   CLOUDY    17   5  59 S12       30.23S WCI   4
IMPERIAL         N/A     11   6  81 SE9       30.17F WCI  -2
MCCOOK         CLOUDY    18   6  59 S9        30.27F WCI   7
$$

NEZ005>010-023>029-035>040-094-280600-
NORTH CENTRAL NEBRASKA

CITY           SKY/WX    TMP DP  RH WIND       PRES   REMARKS
VALENTINE      MOCLDY    14   5  67 S8        30.19S WCI   3
AINSWORTH      CLEAR     13   1  59 S14       30.21F WCI  -2
BROKEN BOW     CLEAR     12  -1  56 S12G22    30.28F WCI  -2
ORD            CLEAR     11  -3  53 S8        30.33F WCI  -1
$$

NEZ041-046>049-061>064-073>077-083>087-280600-
SOUTH CENTRAL NEBRASKA

CITY           SKY/WX    TMP DP  RH WIND       PRES   REMARKS
GRAND ISLAND   PTCLDY    12   1  61 S9        30.40F WCI   0
AURORA         CLOUDY    12   1  63 S6        30.40F WCI   2
HASTINGS       PTCLDY    12   1  61 S7        30.38F WCI   1
HEBRON         CLOUDY    15   2  58 S8        30.46S WCI   4
KEARNEY *      CLOUDY    12   3  67 S8        30.35F WCI   1
$$

NEZ011>018-030>034-042>045-280600-
NORTHEAST NEBRASKA

CITY           SKY/WX    TMP DP  RH WIND       PRES   REMARKS
NORFOLK        CLEAR     10   2  69 S12       30.42S WCI  -5
ALBION         CLEAR      7  -2  66 S5        30.39S WCI  -2
BLAIR          CLEAR     10   3  71 SE5       30.48S WCI   2
COLUMBUS *     CLEAR      9  -6  52 SE6       30.45S WCI  -1
TEKAMAH        CLEAR      9   2  73 SE7       30.52S WCI  -2
$$

NEZ050>053-065>068-078-088>093-280600-
SOUTHEAST NEBRASKA

CITY           SKY/WX    TMP DP  RH WIND       PRES   REMARKS
LINCOLN        CLEAR      8   0  69 S8        30.49F WCI  -4
OMAHA EPPLEY   CLEAR     10   2  69 SE6       30.53F WCI   0
BEATRICE       CLOUDY    15   3  61 SE6       30.48F WCI   6
FALLS CITY     PTCLDY    11   0  61 S5        30.54S WCI   3
NEBRASKA CITY  CLEAR     10  -5  50 S3        30.51F
$$

NEZ044-045-051>053-067-280600-
OMAHA AREA

CITY           SKY/WX    TMP DP  RH WIND       PRES   REMARKS
OMAHA EPPLEY   CLEAR     10   2  69 SE6       30.53F WCI   0
BLAIR          CLEAR     10   3  71 SE5       30.48S WCI   2
OFFUTT AFB     CLEAR      9   1  69 E5        30.52S WCI   0
WAHOO          FAIR       8  -1  67 S6        30.49S WCI  -3
$$



USA.gov is the U.S. government's official web portal to all federal, state and local government web resources and services.